Weather History for Iliamna, AK

Change the Weather History Date:

Thursday, April 11, 2013

  Actual Average Record
Temperature  
Mean Temperature 14 °F -  
Max Temperature 24 °F 36 °F 55 °F (1997)
Min Temperature 3 °F 20 °F -11 °F (1985)
Degree Days  
Heating Degree Days 52    
Moisture  
Dew Point -1 °F    
Average Humidity 54    
Maximum Humidity 80    
Minimum Humidity 21    
Precipitation  
Precipitation 0.00 in - - ()
Sea Level Pressure  
Sea Level Pressure 30.13 in    
Wind  
Wind Speed 5 mph (NNW)    
Max Wind Speed 12 mph    
Max Gust Speed -    
Visibility 10 miles    
Events      
Averages and records for this station are not official NWS values.
T = Trace of Precipitation, MM = Missing Value Source: NWS Daily Summary

Daily Weather History Graph

Daily Weather History Graph

Search for Another Location

Airport:

Trip Planner

Search our weather history database for the weather conditions in past years. The results will help you decide how hot, cold, wet, or windy it might be!

Date:

Astronomy

Apr. 11, 2013 Rise Set
Actual Time 7:14 AM AKDT 9:28 PM AKDT
Civil Twilight 6:29 AM AKDT 10:13 PM AKDT
Nautical Twilight 5:31 AM AKDT 11:12 PM AKDT
Astronomical Twilight 4:15 AM AKDT 12:29 AM AKDT
Moon 7:29 AM AKDT (4/11) 11:45 PM AKDT (4/11)
Length of Visible Light 15h 44m
Length of Day
14h 14m
New Moon, 2% of the Moon is Illuminated
Apr 11
New Moon
Apr 18
First Quarter
Apr 25
Full
May 2
Last Quarter
May 9
New

Hourly Weather History & Observations

Time (AKDT) Temp. Windchill Dew Point Humidity Pressure Visibility Wind Dir Wind Speed Gust Speed Precip Events Conditions
12:53 AM 6.1 °F -0.9 °F -2.0 °F 69% 30.06 in 10.0 mi North 3.5 mph - N/A   Clear
1:53 AM 5.0 °F - -2.0 °F 73% 30.07 in 10.0 mi Calm Calm - N/A   Partly Cloudy
2:53 AM 3.9 °F -5.3 °F -2.0 °F 76% 30.08 in 10.0 mi NNW 4.6 mph - N/A   Mostly Cloudy
3:53 AM 3.9 °F -3.4 °F -2.0 °F 76% 30.09 in 10.0 mi NW 3.5 mph - N/A   Mostly Cloudy
4:53 AM 5.0 °F -2.1 °F -2.0 °F 73% 30.09 in 10.0 mi North 3.5 mph - N/A   Mostly Cloudy
5:53 AM 3.9 °F -5.3 °F -0.9 °F 80% 30.09 in 10.0 mi NNW 4.6 mph - N/A   Mostly Cloudy
6:53 AM 3.9 °F -5.3 °F -0.9 °F 80% 30.09 in 10.0 mi North 4.6 mph - N/A   Clear
7:53 AM 3.9 °F -5.3 °F -2.0 °F 76% 30.09 in 10.0 mi North 4.6 mph - N/A   Mostly Cloudy
8:53 AM 8.1 °F -3.2 °F -0.0 °F 70% 30.10 in 10.0 mi North 6.9 mph - N/A   Clear
9:53 AM 12.0 °F 2.7 °F -0.9 °F 56% 30.10 in 10.0 mi North 5.8 mph - N/A   Partly Cloudy
10:53 AM 14.0 °F 6.5 °F -2.0 °F 49% 30.11 in 10.0 mi NNW 4.6 mph - N/A   Clear
11:53 AM 16.0 °F 7.4 °F -0.9 °F 47% 30.12 in 10.0 mi North 5.8 mph - N/A   Clear
12:53 PM 18.0 °F 11.1 °F -0.0 °F 45% 30.12 in 10.0 mi NW 4.6 mph - N/A   Clear
1:53 PM 19.0 °F 9.0 °F -0.9 °F 42% 30.13 in 10.0 mi NNW 8.1 mph - N/A   Mostly Cloudy
2:53 PM 19.9 °F 10.1 °F -0.9 °F 40% 30.13 in 10.0 mi NNE 8.1 mph - N/A   Scattered Clouds
3:53 PM 21.0 °F 14.6 °F -2.0 °F 36% 30.13 in 10.0 mi Variable 4.6 mph - N/A   Scattered Clouds
4:53 PM 23.0 °F 14.7 °F -0.0 °F 37% 30.13 in 10.0 mi NNW 6.9 mph - N/A   Partly Cloudy
5:53 PM 21.9 °F 12.5 °F -0.0 °F 38% 30.14 in 10.0 mi NW 8.1 mph - N/A   Partly Cloudy
6:53 PM 21.9 °F 11.7 °F -0.0 °F 38% 30.14 in 10.0 mi NW 9.2 mph - N/A   Clear
7:53 PM 21.0 °F 9.9 °F 1.9 °F 44% 30.16 in 10.0 mi NW 10.4 mph - N/A   Clear
8:53 PM 19.0 °F 7.5 °F 3.0 °F 50% 30.17 in 10.0 mi NW 10.4 mph - N/A   Clear
9:53 PM 16.0 °F 2.9 °F 1.0 °F 52% 30.20 in 10.0 mi NW 11.5 mph - N/A   Clear
10:53 PM 14.0 °F 0.5 °F -0.0 °F 54% 30.22 in 10.0 mi NW 11.5 mph - N/A   Clear
11:53 PM 14.0 °F 2.9 °F -0.9 °F 52% 30.23 in 10.0 mi North 8.1 mph - N/A   Clear